Regional Weather Roundup
Issued by NWS

Home | Current Version | Previous Version | Text Only | Print | Product List | Glossary Off
Versions: 1 2 3 4 5 6 7 8 9 10 11 12 13 14 15 16 17 18 19 20 21 22 23 24 25 26 27 28 29 30 31 32 33 34 35 36 37 38 39 40 41 42 43 44 45 46 47 48 49 50

000
ASUS43 KMKX 270300
RWRWI

WISCONSIN REGIONAL WEATHER ROUNDUP
NATIONAL WEATHER SERVICE MILWAUKEE/SULLIVAN WI
1000 PM CDT SUN MAR 26 2017

NOTE: "FAIR" INDICATES FEW OR NO CLOUDS BELOW 12,000 FEET WITH NO
SIGNIFICANT WEATHER AND/OR OBSTRUCTIONS TO VISIBILITY.

WIZ001-002-006>008-014>016-023>028-270400-
NORTHWEST WISCONSIN

CITY           SKY/WX    TMP DP  RH WIND       PRES   REMARKS
SUPERIOR ARPT  CLOUDY    33  33  97 CALM      29.97S
ASHLAND        CLOUDY    33  32  96 NE3       29.96S FOG
HAYWARD        CLOUDY    36  33  89 N7        29.93S WCI  30
SIREN          CLOUDY    35  34  96 N3        29.95S
CUMBERLAND     CLOUDY    34  34 100 N6        29.92S WCI  29
RICE LAKE      CLOUDY    38  37  96 CALM      29.93S FOG
CHETEK         CLOUDY    37  37  97 NW3       29.91S
LADYSMITH      CLOUDY    38  35  90 N7        29.92S WCI  33
EAU CLAIRE     NOT AVBL
MENOMONIE      CLOUDY    41  39  94 W5        29.91S
NEW RICHMOND   CLOUDY    38  37  99 N6        29.93S FOG     WCI  33
OSCEOLA        CLOUDY    38  38 100 N7        29.96F WCI  32
$$

WIZ003>005-009-010-017-018-270400-
NORTH CENTRAL WISCONSIN

CITY           SKY/WX    TMP DP  RH WIND       PRES   REMARKS
MANITOWISH WTR CLOUDY    32  32 100 CALM      29.89F FOG
ARBOR VITAE    CLOUDY    37  36  96 N7        29.88S FOG     WCI  31
WOODRUFF       CLOUDY    37  36  96 N7        29.88S FOG     WCI  31
RHINELANDER    CLOUDY    38  37  97 VRB3      29.87F
EAGLE RIVER    RAIN      35  35 100 N6        29.87F WCI  30
LAND O LAKES   CLOUDY    34  34 100 N5        29.89S WCI  30
PHILLIPS       CLOUDY    34  34 100 N5        29.89S WCI  30
TOMAHAWK       CLOUDY    37  36  96 CALM      29.89S FOG
MEDFORD        CLOUDY    38  37  97 N3        29.87F
MERRILL        DRIZZLE   38  38 100 CALM      29.88S
$$

WIZ029-030-035-036-043>047-270400-
CENTRAL WISCONSIN

CITY           SKY/WX    TMP DP  RH WIND       PRES   REMARKS
WAUSAU         LGT RAIN  38  38 100 NW3       29.86F FOG
MOSINEE        DRIZZLE   37  37 100 VRB3      29.88F
MARSHFIELD     CLOUDY    38  37  97 CALM      29.87S FOG
STEVENS POINT  LGT RAIN  36  36 100 CALM      29.89S
WAUPACA        RAIN      40  39  95 NW3       29.89S
WAUTOMA        LGT RAIN  39  38  96 CALM      29.89S
WISC RAPIDS    LGT RAIN  39  39 100 CALM      29.89F FOG
CAMP DOUGLAS   CLOUDY    39  39 100 CALM      29.89F FOG
$$

WIZ011>013-019>022-031-037>040-048>050-270400-
NORTHEAST WISCONSIN

CITY           SKY/WX    TMP DP  RH WIND       PRES   REMARKS
ANTIGO         LGT RAIN  36  36 100 NW3       29.87S
SHAWANO        DRIZZLE   38  37  93 CALM      29.89S
OCONTO         CLOUDY    36  35  97 N3        29.89S
STURGEON BAY   MIX PCPN  34  33  96 N10       29.88S FOG     WCI  26
GREEN BAY      FOG       37  37 100 NE3       29.88F VSB 1
MANITOWOC      NOT AVBL
APPLETON       DRIZZLE   37  37 100 N6        29.87S WCI  33
CLINTONVILLE   LGT RAIN  37  36  93 CALM      29.89S
OSHKOSH        CLOUDY    39  37  92 N8        29.87S WCI  33
$$

WIZ032>034-041-042-053>061-270400-
SOUTHWEST WISCONSIN

CITY           SKY/WX    TMP DP  RH WIND       PRES   REMARKS
LA CROSSE      CLOUDY    42  41  96 NW5       29.91R
SPARTA         CLOUDY    39  39 100 CALM      29.91S FOG
VIROQUA        CLOUDY    39  39 100 N5        29.89S VSB 1/2
BOSCOBEL       CLOUDY    44  42  93 CALM      29.93R FOG
PRAIRIE DU CHI CLOUDY    43  40  91 N3        29.92R
PLATTEVILLE    CLOUDY    44  44 100 W5        29.91R
$$

WIZ056-057-062-063-064-067-068-270400-
SOUTH CENTRAL WISCONSIN

CITY           SKY/WX    TMP DP  RH WIND       PRES   REMARKS
REEDSBURG      CLOUDY    39  39 100 NW3       29.89S
BARABOO/DELLS  CLOUDY    39  38  97 NW3       29.89S FOG
LONE ROCK      NOT AVBL
MINERAL POINT  FOG       43  43 100 W5        29.91R VSB 3/4
MADISON        CLOUDY    41  40  96 CALM      29.89S
MIDDLETON      CLOUDY    42  42 100 N3        29.90R
WATERTOWN      DRIZZLE   41  41 100 NW6       29.87R
MONROE         FOG       45  43  93 N3        29.88R VSB 1/2
JANESVILLE     CLOUDY    46  46 100 NW3       29.87S
$$

WIZ051-052-058>065-066-070>072-270400-
SOUTHEAST WISCONSIN

CITY           SKY/WX    TMP DP  RH WIND       PRES   REMARKS
MILWAUKEE      LGT RAIN  42  39  89 NE3       29.87S FOG
WAUKESHA       CLOUDY    43  43 100 CALM      29.87S FOG
MILWAUKEE/TIMM DRIZZLE   41  39  93 CALM      29.88R
RACINE         CLOUDY    42  40  92 N6        29.88S
KENOSHA        FOG       47  46  97 CALM      29.87R VSB 1
FOND DU LAC    LGT RAIN  39  37  92 N5        29.87F FOG
SHEBOYGAN      LGT RAIN  41  39  93 N5        29.86S
WEST BEND      DRIZZLE   41  41 100 CALM      29.86S
JUNEAU         LGT RAIN  40  39  99 NW3       29.89R
$$

LSZ147-162-270400-
LAKE SUPERIOR

STATION/POSITION TIME  TEMP    WIND        PRES    WAVE
                       AIR SEA DIR/SP/G            HT/PER
                 (UTC) (F)     (DEG/KT/KT) (MB)    (FT/S)
DEVILS ISLAND    0200   34      70/  4/  5 1015.5S
PORT WING        0230   34      40/  4/  5 1014.9S
SAXON HARBOR     0230   33     320/  4/  4 1013.9F
$$

LMZ867-665-643>646-270400-
LAKE MICHIGAN

STATION/POSITION TIME  TEMP    WIND        PRES    WAVE
                       AIR SEA DIR/SP/G            HT/PER
                 (UTC) (F)     (DEG/KT/KT) (MB)    (FT/S)
CHAMBERS ISLAND  0240   33     350/  6/  7 1011.9S
NORTHPORT PIER   0240   33     330/  9/ 10 1011.9S
KEWAUNEE LAKESHO 0230   36     320/  6/  9 1011.1S
SHEBOYGAN LAKESH 0200   40     310/  5/  5 1011.6R
PORT WASHINGTON  0230   42     330/  1/  3 1012.2S
MILWAUKEE LAKESH 0230   40      10/  5/  5   N/A
KENOSHA   LAKESH 0200   39      20/  2/  3 1011.5
$$

TC  - TEMPERATURE IN CELSIUS
VSB - VISIBILITY IN STATUTE MILES
WCI - WIND CHILL INDEX
HX  - HEAT INDEX




USA.gov is the U.S. government's official web portal to all federal, state and local government web resources and services.